Regional Weather Roundup
Issued by NWS

Home | Current Version | Previous Version | Graphics & Text | Print | Product List | Glossary On
Versions: 1 2 3 4 5 6 7 8 9 10 11 12 13 14 15 16 17 18 19 20 21 22 23 24 25 26 27 28 29 30 31 32 33 34 35 36 37 38 39 40 41 42 43 44 45 46 47 48 49 50
000
ASUS43 KIND 291209
RWRIN

WEATHER ROUNDUP FOR INDIANA
NATIONAL WEATHER SERVICE INDIANAPOLIS IN
800 AM EDT WED MAR 29 2017

NOTE: "FAIR" INDICATES FEW OR NO CLOUDS BELOW 12,000 FEET WITH NO
SIGNIFICANT WEATHER AND/OR OBSTRUCTIONS TO VISIBILITY.

* - STATION DOES NOT REPORT WEATHER SUCH AS PRECIPITATION OR FOG.

+ - STATION NOT QUALITY CONTROLLED BY THE NATIONAL WEATHER SERVICE.
    USE DATA WITH CAUTION...ESPECIALLY DEWPOINT AND RELATIVE
    HUMIDITY OBSERVATIONS.

INZ001>003-010>013-019-020-291300-
NORTHWEST INDIANA

CITY           SKY/WX    TMP DP  RH WIND       PRES   REMARKS
GARY /AIRPORT/ FOG       36  36 100 NE5       30.25R VSB 1/4
KNOX *+        CLEAR     32  28  86 CALM      30.23R
LA PORTE +     CLEAR     36  34  92 E7        30.24R
6HR MIN TEMP:  34; 6HR MAX TEMP:  38;

MICHIGAN CITY+ CLEAR     30  30 100 CALM      30.25R FOG
MONTICELLO +   CLEAR     41  38  89 E7        30.21R
6HR MIN TEMP:  41; 6HR MAX TEMP:  46;

RENSSELAER +   CLEAR     37  37 100 NE8       30.22R FOG
VALPARAISO     CLEAR     35  34  96 NE3       30.24R FOG
6HR MIN TEMP:  34; 6HR MAX TEMP:  39;


$$

LMZ046-743>745-291300-
SOUTHERN LAKE MICHIGAN

STATION/POSITION TIME  TEMP    WIND        PRES    WAVE
                       AIR SEA DIR/SP/G            HT
                 (UTC) (F)     (DEG/KT/KT) (MB)    (FT)
BURNS HARBOR     1202   36      50/  6/ 10 1024.7
MICHIGAN CITY    1130   36      50/  4/  5   N/A

$$

INZ004-005-014>016-021>024-291300-
NORTH CENTRAL INDIANA

CITY           SKY/WX    TMP DP  RH WIND       PRES   REMARKS
ELKHART        CLEAR     36  32  87 E6        30.25R
GOSHEN         CLEAR     35  31  85 E6        30.24R FOG     WCI  30
6HR MIN TEMP:  33; 6HR MAX TEMP:  37;

LOGANSPORT +   CLEAR     39  36  87 NE6       30.23R
PERU/GRISSOM   CLEAR     40  40  99 E10       30.21R
6HR MIN TEMP:  40; 6HR MAX TEMP:  46;

ROCHESTER +    CLEAR     39  37  93 E6        30.24R
SOUTH BEND     CLEAR     35  33  92 E6        30.24R WCI  30
6HR MIN TEMP:  31; 6HR MAX TEMP:  37;

WARSAW +       CLEAR     34  32  93 E5        30.24R FOG     WCI  30

$$

INZ006>009-017-018-025>027-291300-
NORTHEAST INDIANA

CITY           SKY/WX    TMP DP  RH WIND       PRES   REMARKS
ANGOLA *+      CLEAR     34  32  93 E5        30.23R WCI  30
AUBURN +       CLEAR     34  32  93 E6        30.24S FOG     WCI  29
FORT WAYNE     PTCLDY    35  32  88 NE8       30.23S WCI  29
6HR MIN TEMP:  35; 6HR MAX TEMP:  44;

HUNTINGTON +   PTCLDY    36  34  93 E5        30.22R
6HR MIN TEMP:  36; 6HR MAX TEMP:  44;

KENDALLVILLE + CLEAR     34  32  92 E5        30.23S WCI  30

$$

INZ028-029-035-036-043>045-051>053-291300-
WEST CENTRAL INDIANA

CITY           SKY/WX    TMP DP  RH WIND       PRES   REMARKS
CRAWFORDSVL +  CLOUDY    43  43 100 NE10      30.18R FOG
6HR MIN TEMP:  43; 6HR MAX TEMP:  46;

GREENCASTLE +  CLOUDY    46  43  87 E12       30.16R
LAFAYETTE      CLOUDY    45  41  86 E12       30.20R
6HR MIN TEMP:  45; 6HR MAX TEMP:  46;

TERRE HAUTE    CLOUDY    50  45  83 NE8       30.14R
6HR MIN TEMP:  49; 6HR MAX TEMP:  50;


$$

INZ030>032-037>040-046>048-054>057-064-065-291300-
CENTRAL INDIANA

CITY           SKY/WX    TMP DP  RH WIND       PRES   REMARKS
CP ATTERBURY + CLOUDY    46  43  87 NE13      30.16S
COLUMBUS       CLOUDY    46  46 100 NE12      30.16R
FISHERS *+     PTCLDY    43  41  93 CALM      30.19R
FRANKFORT +    PTCLDY    46  43  87 E9        30.21R
6HR MIN TEMP:  46; 6HR MAX TEMP:  49;

GREENWOOD *+   CLOUDY    46  42  84 E9        30.17S
6HR MIN TEMP:  46; 6HR MAX TEMP:  50;

INDIANAPOLIS   DRIZZLE   47  42  83 E14       30.17R
6HR MIN TEMP:  47; 6HR MAX TEMP:  50; 6HR PCP: TRACE;

-EAGLE CREEK   CLOUDY    46  41  82 E13       30.17R
6HR MIN TEMP:  46; 6HR MAX TEMP:  50;

KOKOMO +       CLEAR     40  38  93 NE9       30.22R FOG
6HR MIN TEMP:  40; 6HR MAX TEMP:  47;

MARION +       CLEAR     39  36  91 E8        30.21R FOG
MT COMFORT *+  PTCLDY    43  37  81 E7        30.19R
SHELBYVILLE    CLOUDY    46  39  76 E10       30.16S
6HR MIN TEMP:  46; 6HR MAX TEMP:  51;

ZIONSVILLE +   MOCLDY    44  40  85 E7        30.19R
6HR MIN TEMP:  44; 6HR MAX TEMP:  47;


$$

INZ033-034-041-042-049-050-058-059-291300-
EAST CENTRAL INDIANA

CITY           SKY/WX    TMP DP  RH WIND       PRES   REMARKS
MUNCIE         CLOUDY    43  39  86 E14       30.19S FOG
6HR MIN TEMP:  42; 6HR MAX TEMP:  47;

RICHMOND +     CLEAR     37  36  93 NE10      30.18S

$$

INZ060-061-067>069-081>083-085>088-291300-
SOUTHWEST INDIANA

CITY           SKY/WX    TMP DP  RH WIND       PRES   REMARKS
EVANSVILLE     CLEAR     49  46  90 E5        30.08R
6HR MIN TEMP:  49; 6HR MAX TEMP:  53;

HUNTINGBURG *+ CLEAR     50  47  89 E12       30.09S
6HR MIN TEMP:  47; 6HR MAX TEMP:  52;

WASHINGTON +   CLEAR     46  44  94 MISG      30.10S
6HR MIN TEMP:  45; 6HR MAX TEMP:  50;


$$

INZ062-063-066-070>080-084-089>092-291300-
SOUTH CENTRAL AND SOUTHEAST INDIANA

CITY           SKY/WX    TMP DP  RH WIND       PRES   REMARKS
BEDFORD +      CLOUDY    50  45  81 E7        30.11S
BLOOMINGTON    CLOUDY    50  43  77 E9        30.13R
6HR MIN TEMP:  50; 6HR MAX TEMP:  52;

MADISON *+     CLOUDY    50  45  81 NE9       30.15R
NORTH VERNON + CLOUDY    50  50 100 NE10      30.14S
SEYMOUR +      CLOUDY    52  46  82 NE9       30.14R

$$





USA.gov is the U.S. government's official web portal to all federal, state and local government web resources and services.